Погода в Сектагли

Погода в Сектагли : погода сейчас, прогноз погоды и архив. Всё, что Вы хотите узнать о погоде в Сектагли!

Поиск расширенной информации на нашем сайте:

Другие новости

Новости СМИ2

Главная страница сайта

Новости сайта

03.07.2017

Напоминаем, что на нашем специализированном сайте Метеоцентр.Азия вы можете получить высокодетализированные автоматические прогнозы погоды по пунктам России, СНГ и мира в авиационном формате (включающие направление и скорость ветра, видимость, явления погоды, количество и форму облачности, нижнюю и верхнюю границу облачности).


Погода в Сектагли - сегодня

Время (UTC), дата Ветер
(°,м/с) 
Видим.   Явления Облачность Т
(°С)
Тd
(°С)
f(%) Тe
(°С)
Pmin
(гПа)
dP
(гПа)
Po
(мм)
O2
(г/м3)
Тmin Tmax R s Состояние
почвы
15 17.10.17 320 (СЗ) 20000 м    ясно 
-7.3 -14.9 55 -7  1030.5  0.8  746  310           
18 17.10.17 270 (З) 20000 м    ясно 
-9.3 -14.2 67 -9  1030.8  746  313           
21 17.10.17 тихо ()   20000 м    ясно 
-10.3 -11.6 90 -10  1030.6  -0.3  746  314  -10.4        замёрзшая 
00 18.10.17 тихо ()   20000 м    3/0 верхняя 
[Ci fib]
-6.4 -9.2 80 -6  1030.2  0.1  746  309           
03 18.10.17 090 (В) 20000 м    10/0 верхняя 
[Cs]
-0.8 -9.2 53 1028.1  -1.3  745  302           
06 18.10.17 140 (ЮВ) 20000 м    10/0 средняя, верхняя 
[Ac As|Cs]
+2 -4.4 63 +3  1025.2  -2.4  743  298           
09 18.10.17 090 (В) 20000 м    10/0 средняя, верхняя 
[Ac As|Ci fib]
+1.6 -7.4 51 +2  1023.5  -1.7  742  298    +2.6       
12 18.10.17 090 (В) 20000 м    6/0 средняя 
[Ac As]
+0.4 -6.5 60 +1  1023.6  -0.1  742  299           
15 18.10.17 050 (СВ) 20000 м    10/0 средняя 
[Ac und]
+0.3 -8 54 1022.5  -1  741  299           
18 18.10.17 090 (В) 20000 м    8/0 средняя 
[Ac As]
-0.5 -7.6 59 -1  1021.8  -0.8  741  300           
21 18.10.17 090 (В) 20000 м    10/0 средняя 
[Ac und]
-0.6 -6.6 64 1020.6  -1.2  740  299  -0.8        замёрзшая 
00 19.10.17 090 (В) 20000 м    10/0 верхняя 
[Cs]
-0.2 -6 65 1021.2  0.6  740  299  -1         
03 19.10.17 090 (В) 20000 м  дым  10/0 верхняя 
[Cs]
+2.4 -6.2 53 +3  1020.3  -0.5  740  296           
06 19.10.17 тихо ()   20000 м  дым  10/0 верхняя 
[Cs]
+4.5 -6.8 44 +5  1018.9  -1.1  739  294           
09 19.10.17 тихо ()   20000 м  дым  10/0 верхняя 
[Cs]
+1.6 -7.4 51 +2  1019.1  -0.1  739  297    +5       
12 19.10.17 тихо ()   20000 м    3/0 верхняя 
[Ci fib]
-1.8 -4.9 79 -2  1020.4  0.8  740  300           
15 19.10.17 тихо ()   20000 м    3/0 верхняя 
[Ci fib]
-2.4 -5.3 80 -2  1020.7  0.2  740  301           
18 19.10.17 тихо ()   20000 м    3/0 верхняя 
[Ci fib]
-3.5 -4.3 94 -4  1020.4  -0.5  739  302           
21 19.10.17 тихо ()   20000 м    ясно 
-3.6 -4.7 92 -4  1020.1  -0.3  739  302  -4        замёрзшая 
00 20.10.17 090 (В) 20000 м  дым  8/0 средняя 
[Ac As]
+1.3 -5.4 61 +1  1019.2  -0.1  739  297           
03 20.10.17 090 (В) 10 км  дым  10/10 1000 м кучево-дожд. 
[Cb cap]
+5.7 -4.1 49 +7  1017  -1.7  738  292           
06 20.10.17 090 (В) 20000 м  дым  8/0 средняя 
[Ac trans]
+7.9 -4.2 42 +9  1014.4  -2.3  736  289           
09 20.10.17 140 (ЮВ) 20000 м  дым  8/0 средняя 
[Ac As]
+4.4 -3 59 +5  1013.9  -0.9  735  292           
12 20.10.17 160 (Ю) 20000 м    10/0 средняя 
[Ac und]
+5.4 -7.1 40 +6  1013.3  -0.4  735  291           
15 20.10.17 180 (Ю) 20000 м  слаб. ливневой дождь  10/10 1000 м кучево-дожд. 
[Cb cap]
+2 -0.2 85 +3  1012.7  -0.9  734  294           
Время (UTC), дата Ветер
(°,м/с) 
Видим.   Явления Облачность Т
(°С)
Тd
(°С)
f(%) Тe
(°С)
Pmin
(гПа)
dP
(гПа)
Po
(мм)
O2
(г/м3)
Тmin Tmax R s Состояние
почвы

Для получения пояснительной информации подведите курсор к названию столбца.

ПОГОДА в Сектагли - архив

Всё, что Вы хотите узнать о погоде в Сектагли - удобно и подробно!

Выберите нужную дату (начиная с 1 января 2015* года) и нажмите кнопку "Найти".
Будут отображены архивные сводки погоды по пункту Сектагли, начиная с указанной даты.


Отображать данные в формате CSV (для использования в таблицах Excel)


Внимание! Наш архив погоды предназначен исключительно для личного некоммерческого использования в познавательных целях. Если Вам необходимы официальные справки о состоянии погоды (для производственных, юридических, коммерческих и т.п. целей), обращайтесь в органы Росгидромета.

*Примечание: данная дата относится к архиву по метеостанциям СССР (Россия, СНГ, Балтия).
Архив по метеостанциям Зарубежной Европы и Азии (кроме Китая) хранится 10 дней, по другим регионам земного шара (Китай, Африка, Америка, Австралия, Океания) - 1 день.

Сектагли - район местоположения метеостанции


Название, широта, долгота, высота метеостанции:
Сектагли 50.4°ш. 131°д. 230 м над ур. моря [Российская Федерация]

Дополнительная информация

В oтличие oт бoльшинства пoгoдных сайтoв мы публикуем пoдрoбную метеoинфoрмацию в детальнoм прoфессиoнальнoм фoрмате.

Характеристики температуры и влажнoсти вoздуха измеряются на высoте 2 м в тени вдали oт зданий и деревьев.
Скoрoсть ветра измеряется на высoте 10 м (на урoвне рoста челoвека скoрoсть ветра ниже в 1.5-2 раза). Если метеoстанция нахoдится в гoрoде или в лесу, тo скoрoсть ветра занижена на 2-4 м/с пo сравнению с oткрытым местoм. Скoрoсть ветра над акватoриями крупных рек и oзёр, а также на вершинах хoлмoв на 2-5 м/с выше, чем в oбычных услoвиях.
Атмoсфернoе давление в разных тoчках местнoсти мoжет значительнo oтличаться oт давления на метеoстанции, в зависимoсти oт услoвий рельефа (при пoдъёме на 10 м давление пoнижается примернo на 1 мм рт.ст.).